LiveATC.Net - Listen to live air traffic control over the Internet!


ICAO: CYYJ  IATA: YYJ   Airport: Victoria International Airport
City: Victoria   State/Province: British Columbia
Country: Canada   Continent: North America
CYYJ METAR Weather: CYYJ 081900Z 13006KT 30SM FEW028TCU BKN063 BKN085 17/13 A3020 RMK TCU1SC5AC1 SLP229
CYYJ Flight Activity (FlightAware)

CYYJ Gnd/Twr
Feed Status: UP   Listeners: 1
Listen in your browser - HTML5 player (in browser, HTML5)
Click here to listen with your own player (launches your MP3 player)
Archive Access: CYYJ Gnd/Twr
FacilityFrequency
Victoria Ground121.900
Victoria Tower (Inner)119.700
Victoria Tower (Outer)119.100
Feed sponsored by: Victoria Flying Club

NOTICE

Unauthorized use prohibited. See LiveATC.net Terms of Service


Airport/ARTCC Code
Frequency Search
(e.g., 124.400, 128.75)
Site-wide search
 


Browse Feeds
Top 50 Feeds
Coverage Map
Bad Weather Areas

LiveATC FAQ
Offer LiveATC feed
Contact LiveATC.net
Press Inquiries

LiveATC on iPhone
LiveATC on Android

Windows Phone
Windows 8/10

LiveATC Mobile
(Mobile browser)

ATC Audio Archives
Interesting Recordings

LiveATC Forums


Home Page
About LiveATC.net
Make a Donation
Terms of Use
Privacy Policy

Canadian Air Freqs

AIRMETs/SIGMETs

FAA Airport Status
Nat'l Airspace Status
Arrival Demand Charts


Server Software By:
Icecast.org
Liquidsoap